Location: Unspecified
(58.9262°N, 0.0000°E)
Time: 02:18:56
(UTC+00:00)

CZ-6A DEB - Visible Passes

Search period start: 04 April 2026 00:00
Search period end: 14 April 2026 00:00
Orbit: 792 x 828 km, 89.0° (Epoch: 29 March)

Date Brightness Start Highest point End Pass type
(mag) Time Alt. Az. Time Alt. Az. Time Alt. Az.
4 Apr ? 03:40:16 10° E 03:42:15 12° ENE 03:44:14 10° NE visible
6 Apr ? 04:30:21 10° SE 04:34:47 28° ENE 04:39:16 10° NNE visible
6 Apr ? 19:58:39 10° NW 20:00:50 13° WNW 20:03:02 10° W visible
7 Apr ? 04:07:15 10° ESE 04:11:12 22° ENE 04:15:09 10° NNE visible
7 Apr ? 19:34:06 10° NNW 19:37:20 16° WNW 19:40:35 10° W visible
8 Apr ? 03:44:22 10° ESE 03:47:38 17° ENE 03:50:56 10° NNE visible
9 Apr ? 03:21:51 10° E 03:24:08 13° ENE 03:26:27 10° NNE visible
11 Apr ? 04:12:10 10° SE 04:16:42 30° ENE 04:21:17 10° NNE visible
12 Apr ? 03:49:01 10° ESE 03:53:05 23° ENE 03:57:12 10° NNE visible
13 Apr ? 03:26:05 10° ESE 03:29:31 18° ENE 03:33:00 10° NNE visible
